Location: ČR
(50.0000°N, 15.0000°E)
Time: 07:45:40
(UTC+02:00)

A-11 Canister half - Pass Details

Date: 15 March 2026
Orbit: 1514 x 1685 km, 47.2° (Epoch: 18 April)

Event Time Altitude Azimuth Distance (km) Brightness Sun altitude
Rises 15:59:59 0° 254° (WSW) 4,873 13.2 18.4°
Reaches altitude 10° 16:03:06 10° 253° (WSW) 3,904 13.4 18.0°
Maximum altitude 16:13:07 75° 170° (S) 1,735 9.7 16.5°
Drops below altitude 10° 16:23:16 10° 88° (E) 3,948 10.6 15.0°
Sets 16:26:26 0° 87° (E) 4,930 11.1 14.6°
